Location: Oshawa
(43.9000°N, 78.8670°W)
Time: 11:22:25
(UTC-04:00)

Altair - Visible Passes

Search period start: 01 July 2016 00:00
Search period end: 11 July 2016 00:00
Orbit: 1502 x 1682 km, 47.2° (Epoch: 01 July)

Date Brightness Start Highest point End Pass type
(mag) Time Alt. Az. Time Alt. Az. Time Alt. Az.
01 Jul 8.6 03:18:06 16° S 03:23:35 27° SE 03:31:12 10° ENE visible
02 Jul 8.7 02:54:11 18° SSE 02:58:34 25° SE 03:05:49 10° E visible
02 Jul 7.7 04:52:40 10° SW 05:02:00 69° SSE 05:11:44 10° ENE visible
03 Jul 8.7 02:30:14 18° SSE 02:33:34 22° SE 02:40:22 10° E visible
03 Jul 7.7 04:28:14 12° SW 04:36:52 65° SSE 04:46:31 10° ENE visible
04 Jul 8.7 02:06:15 18° SE 02:08:34 20° SE 02:14:53 10° E visible
04 Jul 7.7 04:04:14 17° SW 04:11:46 62° SE 04:21:17 10° ENE visible
05 Jul 8.8 01:42:12 17° SE 01:43:34 18° SE 01:49:19 10° E visible
05 Jul 7.7 03:40:11 21° SW 03:46:39 58° SE 03:56:05 10° ENE visible
06 Jul 8.9 01:18:06 16° SE 01:18:36 16° ESE 01:23:39 10° E visible
06 Jul 7.7 03:16:06 26° SSW 03:21:34 54° SE 03:30:51 10° ENE visible
07 Jul 9.0 00:53:59 14° ESE 00:53:59 14° ESE 00:57:51 10° E visible
07 Jul 7.8 02:51:58 30° SSW 02:56:29 51° SE 03:05:38 10° ENE visible
07 Jul 7.7 04:51:25 10° WSW 05:00:54 83° NNW 05:10:47 10° ENE visible
08 Jul 9.1 00:29:48 12° ESE 00:29:48 12° ESE 00:31:45 10° ESE visible
08 Jul 7.8 02:27:47 33° S 02:31:24 47° SE 02:40:23 10° ENE visible
08 Jul 7.6 04:26:16 10° WSW 04:35:42 86° NNW 04:45:33 10° ENE visible
09 Jul 7.8 02:03:32 35° S 02:06:21 44° SE 02:15:09 10° ENE visible
09 Jul 7.5 04:01:31 12° WSW 04:10:32 88° NNW 04:20:20 10° ENE visible
10 Jul 7.8 01:39:14 36° SSE 01:41:17 40° SE 01:49:53 10° ENE visible
10 Jul 7.5 03:37:13 15° WSW 03:45:21 89° SSE 03:55:07 10° ENE visible
